Location: ?
(35.4064°N, 139.3593°E)
Time: 17:29:24
(UTC+00:00)

Hubble Space Telescope - Pass Details

Date: 16 December 2025
Orbit: 479 x 482 km, 28.5° (Epoch: 12 January)

Event Time Altitude Azimuth Distance (km) Brightness Sun altitude
Rises 07:59:18 0° 255° (WSW) 2,528 6.5 -5.9°
Reaches altitude 10° 08:01:43 10° 243° (WSW) 1,649 5.1 -6.4°
Maximum altitude 08:04:58 27° 184° (S) 940 2.4 -7.0°
Drops below altitude 10° 08:08:14 10° 125° (SE) 1,647 2.9 -7.6°
Enters shadow 08:10:19 - 114° (ESE) 2,407 3.7 -8.0°
